Weather in Belogorsk

Russia / Amur Oblast     50°55′16″N   128°28′26″E
temp.,
°C
wind,
m/s
gust,
m/s
humid.,
%
clouds,
%
prec.,
mm/h
press.,
hPa
HPBL,
m
8 may, sat
sat800:00+6nne6124295 0.0 998388
03:00+4n6125393 0.0 998352
06:00+3n612607 0.0 998432
09:00+7n6846100 0.0 998796
12:00+11n5640100 0.0 9981491
15:00+13nne6734100 0.0 9972116
18:00+12ene6740100 0.0 9981879
21:00+8e4772100 0.0 1000208
9 may, sun
sun900:00+6ene2582100 0.0 1002241
03:00+5n4782100 0.0 1002369
06:00+5n4782100 0.0 1003379
09:00+6n4572100 0.0 1004591
12:00+8nnw4468100 0.0 1005972
15:00+10nnw4361100 0.0 10051146
18:00+10nw4555100 0.0 1006917
21:00+8nw4763100 0.0 1007260
10 may, mon
mon1000:00+7nw376989 0.0 1008229
03:00+6wnw357296 0.0 1009239
06:00+5wnw368197 0.0 1010194
09:00+10nw445639 0.0 10111172
12:00+13nw44425 0.0 10101581
15:00+16nnw343315 0.0 10102200
18:00+16nnw343072 0.0 10102342
21:00+11ne224558 0.0 101214
11 may, tue
tue1100:00+9e36585 0.0 101390
03:00+8ese356722 0.0 101371
06:00+8se365767 0.0 1014134
09:00+15sse6846100 0.0 1013703
12:00+18s783392 0.0 10111853
15:00+19sse91129100 0.0 10092466
18:00+18sse91333100 0.0 10071773
21:00+15sse101743100 0.0 1007938
12 may, wed
wed1200:00+12se112061100 0.0 1006721
03:00+11se122062100 0.0 1004783
06:00+10se132175100 1.1 10021237
09:00+9sse111783100 5.4 1002926
12:00+12se10137261 0.1 10011025
15:00+14se11146799 0.9 9971645
18:00+12se101272100 7.8 9971196
21:00+9se71379100 8.0 998393